Location: Friaudour
(46.0460°N, 1.2873°E)
Time: 04:16:57
(UTC+00:00)

ADEOS II - Pass Details

Date: 14 July 2020
Orbit: 799 x 801 km, 98.5° (Epoch: 06 August)

Event Time Altitude Azimuth Distance (km) Brightness Sun altitude
Rises 01:18:04 0° 25° (NNE) 3,320 6.9 -20.1°
Reaches altitude 10° 01:20:51 10° 39° (NE) 2,384 5.6 -19.9°
Maximum altitude 01:25:05 24° 93° (E) 1,598 3.8 -19.7°
Enters shadow 01:28:37 13° 141° (SE) 2,167 4.0 -19.5°
